Simultaneous Nadir Overpasses (SNOs) Predictions

Prediction of SNOs between AQUA and NPP Satellite Orbit:

Table of predicted SNOs for the next 14.0 days since TLE Epoch: 7/2/2022
Index Date (AQUA) Time (AQUA) Lat,Lon (AQUA) SZA (AQUA ) Date (NPP) Time (NPP) Lat,Lon (NPP) SZA (NPP ) Distance(km) Time Diff (sec)
1 07/03/2022 19:22:35 -77.64, -44.75 107.21 07/03/2022 19:21:22 -77.64, -44.81 107.14 1.75 73
2 07/03/2022 20:11:44 78.37, 126.27 71.85 07/03/2022 20:11:48 78.37, 126.35 71.83 1.97 4
3 07/06/2022 11:38:17 -78.28, 74.21 107.77 07/06/2022 11:38:04 -78.29, 74.29 107.78 2.12 13
4 07/06/2022 12:27:32 78.72,-115.83 71.63 07/06/2022 12:28:37 78.72,-115.82 71.58 0.29 65
5 07/09/2022 03:04:47 78.21, 22.27 72.63 07/09/2022 03:04:17 78.22, 22.37 72.63 2.42 30
6 07/09/2022 03:54:03 -78.67,-167.73 108.00 07/09/2022 03:54:51 -78.67,-167.68 108.04 1.16 48
7 07/11/2022 18:31:24 -77.93, -30.65 106.67 07/11/2022 18:30:38 -77.93, -30.72 106.62 1.83 46
8 07/11/2022 19:20:33 78.63, 140.47 72.40 07/11/2022 19:21:04 78.64, 140.59 72.36 2.58 31
9 07/14/2022 09:57:53 77.93, -82.30 73.73 07/14/2022 09:56:50 77.93, -82.27 73.78 0.75 63



Historial Predications of SNOs between AQUA and NPP
